Weather History for Summerville, SC

Change the Weather History Date:

Tuesday, October 9, 2012

  Actual Average (KCHS) Record (KCHS)
Temperature  
Mean Temperature 57 °F 69 °F  
Max Temperature 64 °F 79 °F 90 °F (2009)
Min Temperature 50 °F 59 °F 39 °F (2000)
Degree Days  
Heating Degree Days 8 1  
Month to date heating degree days 9  
Since 1 July heating degree days 12  
Cooling Degree Days 0 5  
Month to date cooling degree days 55  
Year to date cooling degree days 2193  
Growing Degree Days 7 (Base 50)    
Moisture  
Dew Point 53 °F    
Average Humidity 92    
Maximum Humidity 100    
Minimum Humidity 68    
Precipitation  
Precipitation 0.00 in 0.13 in 3.37 in (1971)
Month to date precipitation 1.35  
Year to date precipitation 43.09  
Sea Level Pressure  
Sea Level Pressure 30.11 in    
Wind  
Wind Speed 7 mph (NNW)    
Max Wind Speed 10 mph    
Max Gust Speed 16 mph    
Visibility 8 miles    
Events      
T = Trace of Precipitation, MM = Missing Value Source: NWS Daily Summary

Daily Weather History Graph

Daily Weather History Graph

Search for Another Location

Airport:

Trip Planner

Search our weather history database for the weather conditions in past years. The results will help you decide how hot, cold, wet, or windy it might be!

Date:

Astronomy

Oct. 09, 2012 Rise Set
Actual Time 7:21 AM EDT 6:54 PM EDT
Civil Twilight 6:56 AM EDT 7:19 PM EDT
Nautical Twilight 6:27 AM EDT 7:48 PM EDT
Astronomical Twilight 5:59 AM EDT 8:16 PM EDT
Moon 1:14 AM EDT (10/9) 3:04 PM EDT (10/9)
Length of Visible Light 12h 22m
Length of Day
11h 33m
Last Quarter, 37% of the Moon is Illuminated
Oct 9
Last Quarter
Oct 15
New
Oct 21
First Quarter
Oct 29
Full
Nov 6
Last Quarter

Hourly Weather History & Observations

Time (EDT) Temp. Dew Point Humidity Pressure Visibility Wind Dir Wind Speed Gust Speed Precip Events Conditions
12:15 AM 53.6 °F 53.6 °F 100% 30.11 in 10.0 mi North 5.8 mph - N/A   Overcast
12:35 AM 53.6 °F 53.6 °F 100% 30.10 in 7.0 mi North 10.4 mph - N/A   Overcast
12:55 AM 53.6 °F 53.6 °F 100% 30.10 in 7.0 mi North 9.2 mph - N/A   Overcast
1:15 AM 53.6 °F 53.6 °F 100% 30.10 in 5.0 mi North 8.1 mph - N/A   Overcast
1:35 AM 53.6 °F 53.6 °F 100% 30.10 in 5.0 mi North 6.9 mph - N/A   Overcast
1:55 AM 53.6 °F 53.6 °F 100% 30.10 in 4.0 mi NNW 6.9 mph - N/A   Overcast
2:15 AM 53.6 °F 53.6 °F 100% 30.10 in 3.0 mi North 8.1 mph - N/A   Overcast
2:35 AM 53.6 °F 53.6 °F 100% 30.10 in 3.0 mi NNW 9.2 mph - N/A   Overcast
2:55 AM 53.6 °F 53.6 °F 100% 30.09 in 5.0 mi North 6.9 mph - N/A   Overcast
3:15 AM 53.6 °F 53.6 °F 100% 30.09 in 5.0 mi NNW 8.1 mph - N/A   Overcast
3:35 AM 53.6 °F 53.6 °F 100% 30.09 in 5.0 mi NNW 8.1 mph - N/A   Overcast
3:55 AM 53.6 °F 53.6 °F 100% 30.08 in 5.0 mi NNW 5.8 mph - N/A   Overcast
4:15 AM 53.6 °F 53.6 °F 100% 30.08 in 10.0 mi NNW 5.8 mph - N/A   Overcast
4:35 AM 53.6 °F 53.6 °F 100% 30.08 in 3.0 mi NNW 6.9 mph - N/A   Overcast
4:55 AM 53.6 °F 53.6 °F 100% 30.09 in 4.0 mi NNW 6.9 mph - N/A   Overcast
5:15 AM 51.8 °F 51.8 °F 100% 30.09 in 3.0 mi NNW 6.9 mph - N/A   Overcast
5:35 AM 53.6 °F 53.6 °F 100% 30.09 in 5.0 mi North 6.9 mph - N/A   Overcast
5:55 AM 51.8 °F 51.8 °F 100% 30.09 in 3.0 mi NNW 6.9 mph - N/A   Overcast
6:15 AM 51.8 °F 51.8 °F 100% 30.10 in 3.0 mi NNW 6.9 mph - N/A   Overcast
6:35 AM 51.8 °F 51.8 °F 100% 30.11 in 4.0 mi North 6.9 mph - N/A   Overcast
6:55 AM 51.8 °F 51.8 °F 100% 30.11 in 3.0 mi North 5.8 mph - N/A   Overcast
7:15 AM 51.8 °F 51.8 °F 100% 30.12 in 4.0 mi North 9.2 mph - N/A   Overcast
7:55 AM 51.8 °F 51.8 °F 100% 30.12 in 3.0 mi NNW 8.1 mph - N/A   Overcast
8:15 AM 51.8 °F 51.8 °F 100% 30.13 in 2.0 mi NNW 8.1 mph - N/A   Overcast
8:55 AM 51.8 °F 51.8 °F 100% 30.14 in 3.0 mi NNW 8.1 mph - N/A   Overcast
9:15 AM 51.8 °F 51.8 °F 100% 30.14 in 3.0 mi NNW 8.1 mph - N/A   Overcast
9:35 AM 51.8 °F 51.8 °F 100% 30.15 in 5.0 mi NNW 6.9 mph - N/A   Overcast
9:55 AM 53.6 °F 53.6 °F 100% 30.15 in 7.0 mi NNW 10.4 mph - N/A   Overcast
10:15 AM 53.6 °F 53.6 °F 100% 30.15 in 10.0 mi North 9.2 mph - N/A   Overcast
10:35 AM 53.6 °F 53.6 °F 100% 30.16 in 10.0 mi NNW 9.2 mph - N/A   Overcast
10:55 AM 53.6 °F 53.6 °F 100% 30.15 in 10.0 mi North 8.1 mph - N/A   Overcast
11:15 AM 55.4 °F 53.6 °F 94% 30.15 in 10.0 mi North 9.2 mph - N/A   Overcast
11:35 AM 55.4 °F 53.6 °F 94% 30.15 in 10.0 mi North 10.4 mph - N/A   Overcast
11:55 AM 55.4 °F 53.6 °F 94% 30.15 in 10.0 mi NNW 9.2 mph 16.1 mph N/A   Overcast
12:15 PM 57.2 °F 53.6 °F 88% 30.15 in 10.0 mi North 9.2 mph - N/A   Overcast
12:35 PM 57.2 °F 53.6 °F 88% 30.14 in 10.0 mi NNW 8.1 mph - N/A   Overcast
12:55 PM 59.0 °F 53.6 °F 82% 30.13 in 10.0 mi North 6.9 mph - N/A   Overcast
1:15 PM 59.0 °F 53.6 °F 82% 30.13 in 10.0 mi North 9.2 mph - N/A   Overcast
1:35 PM 60.8 °F 53.6 °F 77% 30.12 in 10.0 mi NNW 8.1 mph - N/A   Overcast
1:55 PM 62.6 °F 53.6 °F 72% 30.11 in 10.0 mi North 9.2 mph - N/A   Overcast
2:15 PM 62.6 °F 53.6 °F 72% 30.11 in 10.0 mi WNW 6.9 mph - N/A   Mostly Cloudy
2:35 PM 62.6 °F 53.6 °F 72% 30.10 in 10.0 mi NW 9.2 mph - N/A   Mostly Cloudy
2:55 PM 64.4 °F 53.6 °F 68% 30.09 in 10.0 mi NW 9.2 mph - N/A   Mostly Cloudy
3:15 PM 64.4 °F 53.6 °F 68% 30.09 in 10.0 mi North 6.9 mph - N/A   Mostly Cloudy
3:35 PM 64.4 °F 53.6 °F 68% 30.09 in 10.0 mi NW 4.6 mph - N/A   Mostly Cloudy
3:55 PM 64.4 °F 53.6 °F 68% 30.09 in 10.0 mi North 5.8 mph - N/A   Mostly Cloudy
4:15 PM 62.6 °F 55.4 °F 77% 30.09 in 10.0 mi Calm Calm - N/A   Scattered Clouds
4:35 PM 64.4 °F 53.6 °F 68% 30.08 in 10.0 mi North 6.9 mph - N/A   Clear
4:55 PM 62.6 °F 53.6 °F 72% 30.09 in 10.0 mi NNW 4.6 mph - N/A   Scattered Clouds
5:15 PM 64.4 °F 53.6 °F 68% 30.08 in 10.0 mi North 8.1 mph - N/A   Scattered Clouds
5:35 PM 62.6 °F 53.6 °F 72% 30.08 in 10.0 mi North 6.9 mph - N/A   Scattered Clouds
5:55 PM 62.6 °F 53.6 °F 72% 30.08 in 10.0 mi NNW 4.6 mph - N/A   Scattered Clouds
6:15 PM 62.6 °F 55.4 °F 77% 30.08 in 10.0 mi NNE 6.9 mph - N/A   Clear
6:35 PM 60.8 °F 55.4 °F 82% 30.09 in 10.0 mi North 6.9 mph - N/A   Scattered Clouds
6:55 PM 59.0 °F 55.4 °F 88% 30.09 in 10.0 mi NNE 3.5 mph - N/A   Scattered Clouds
7:15 PM 57.2 °F 53.6 °F 88% 30.09 in 10.0 mi North 3.5 mph - N/A   Clear
7:35 PM 55.4 °F 53.6 °F 94% 30.09 in 10.0 mi North 4.6 mph - N/A   Clear
7:55 PM 55.4 °F 53.6 °F 94% 30.10 in 10.0 mi Calm Calm - N/A   Clear
8:15 PM 53.6 °F 53.6 °F 100% 30.10 in 10.0 mi Calm Calm - N/A   Clear
8:35 PM 53.6 °F 53.6 °F 100% 30.11 in 10.0 mi Calm Calm - N/A   Clear
8:55 PM 53.6 °F 53.6 °F 100% 30.12 in 10.0 mi NNW 3.5 mph - N/A   Clear
9:15 PM 53.6 °F 53.6 °F 100% 30.12 in 10.0 mi Calm Calm - N/A   Clear
9:35 PM 53.6 °F 53.6 °F 100% 30.12 in 10.0 mi Calm Calm - N/A   Clear
9:55 PM 51.8 °F 51.8 °F 100% 30.13 in 10.0 mi Calm Calm - N/A   Clear
10:15 PM 51.8 °F 51.8 °F 100% 30.13 in 10.0 mi Calm Calm - N/A   Clear
10:35 PM 51.8 °F 51.8 °F 100% 30.12 in 10.0 mi Calm Calm - N/A   Clear
10:55 PM 51.8 °F 51.8 °F 100% 30.12 in 10.0 mi Calm Calm - N/A   Clear
11:15 PM 51.8 °F 51.8 °F 100% 30.13 in 10.0 mi Calm Calm - N/A   Clear
11:35 PM 50.0 °F 50.0 °F 100% 30.13 in 10.0 mi Calm Calm - N/A   Clear
11:55 PM 50.0 °F 50.0 °F 100% 30.13 in 10.0 mi Calm Calm - N/A   Clear